Regional Weather Roundup
Issued by NWS Kansas City/Pleasant Hill, MO

Home | Current Version | Previous Version | Graphics & Text | Print | Product List | Glossary Off
Versions: 1 2 3 4 5 6 7 8 9 10 11 12 13 14 15 16 17 18 19 20 21 22 23 24 25 26 27 28 29 30 31 32 33 34 35 36 37 38 39 40 41 42 43 44 45 46 47 48 49 50

000
ASUS43 KEAX 241810
RWREAX

WEATHER ROUNDUP FOR EASTERN KANSAS AND NORTHWEST MISSOURI
NATIONAL WEATHER SERVICE KANSAS CITY/PLEASANT HILL MO
100 PM CDT THU JUL 24 2014

KSZ040-057-103>105-MOZ028-029-037-043-241900-
...KANSAS CITY METROPOLITAN AREA...

CITY           SKY/WX    TMP DP  RH WIND       PRES   REMARKS
K.C. INTL      MOSUNNY   79  58  48 SE13G18   30.14F
6HR MIN TEMP:  67; 6HR MAX TEMP:  80;

K.C. DOWNTOWN  SUNNY     81  57  43 SE12G18   30.13S
6HR MIN TEMP:  68; 6HR MAX TEMP:  82;

LEES SUMMIT    SUNNY     78  58  49 SE12      30.15F
6HR MIN TEMP:  64; 6HR MAX TEMP:  79;

OLATHE - IXD   SUNNY     80  58  46 SE10G17   30.14F
6HR MIN TEMP:  65; 6HR MAX TEMP:  81;

OLATHE - OJC   SUNNY     78  59  51 E12       30.13F
6HR MIN TEMP:  65; 6HR MAX TEMP:  79;

LAWRENCE       SUNNY     84  60  44 SE12      30.12F

$$

MOZ001>008-011>017-020>025-030>033-038>040-044>046-053-054-241900-
...NORTHERN AND CENTRAL MISSOURI...

CITY           SKY/WX    TMP DP  RH WIND       PRES   REMARKS
ST. JOSEPH     SUNNY     80  60  50 SE13      30.13F
6HR MIN TEMP:  66; 6HR MAX TEMP:  80;

MOSBY          CLEAR     77  55  47 E10G16    30.15S
WHITEMAN AFB   SUNNY     79  44  28 SE12      30.14F
6HR MIN TEMP:  63; 6HR MAX TEMP:  79;

CLINTON        SUNNY     81  59  47 E7        30.14F
SEDALIA        SUNNY     81  58  45 SE13      30.15F
6HR MIN TEMP:  63; 6HR MAX TEMP:  81;

WARSAW         NOT AVBL
MARSHALL       MOSUNNY   82  61  47 SE6       30.16F
CHILLICOTHE      N/A     79  58  48 SE6       30.17F
6HR MIN TEMP:  61; 6HR MAX TEMP:  79;

MOBERLY        MOSUNNY   79  57  47 E7        30.17F
KIRKSVILLE     MOSUNNY   77  60  55 CALM      30.18F
6HR MIN TEMP:  60; 6HR MAX TEMP:  77;


$$

MOZ041-047>049-056>058-063>065-088>090-097-241900-
...EASTERN AND SOUTHERN MISSOURI...

CITY           SKY/WX    TMP DP  RH WIND       PRES   REMARKS
ST. LOUIS INTL PTSUNNY   78  55  44 N8        30.14F
6HR MIN TEMP:  63; 6HR MAX TEMP:  79;

SPIRIT OF STL  MOSUNNY   79  55  43 NE10G16   30.12F
COLUMBIA       SUNNY     79  56  45 E9        30.16F
JEFFERSON CITY SUNNY     78  56  46 SE9       30.14F
MEXICO         MOSUNNY   79  61  53 NE7       30.17S
HANNIBAL       SUNNY     81  50  34 E5        30.17F
ROLLA          SUNNY     78  52  40 N9        30.15S
OSAGE BEACH    MOSUNNY   81  54  39 E5        30.15F
SPRINGFIELD    SUNNY     80  56  43 E7        30.14F
BRANSON        MOSUNNY   82  59  44 E9        30.15F
NEVADA         SUNNY     81  61  50 E9        30.13F
JOPLIN         MOSUNNY   84  62  47 SE6       30.11F
WEST PLAINS    SUNNY     77  55  46 VRB5      30.15F
MALDEN         SUNNY     79  54  41 N9        30.09F

$$

IAZ060-094-KSZ022-034>040-054-083-096-NEZ052-066-093-241900-
...KANSAS...SOUTHEAST NEBRASKA AND IOWA...

CITY           SKY/WX    TMP DP  RH WIND       PRES   REMARKS
TOPEKA         SUNNY     84  62  47 E12       30.11F
6HR MIN TEMP:  67; 6HR MAX TEMP:  85;

MANHATTAN      SUNNY     87  64  46 SE13      30.07F
EMPORIA        SUNNY     82  64  54 SE15      30.09F
CHANUTE        MOSUNNY   82  66  58 SE9G16    30.11F
WICHITA        SUNNY     86  68  54 SE14      30.07F
OMAHA          PTSUNNY   79  60  52 S22G29    30.04F
LINCOLN        SUNNY     82  60  47 SE21G28   30.07F
FALLS CITY     MOSUNNY   80  62  54 E14       30.12F
LAMONI         CLOUDY    75  57  53 S5        30.17F
DES MOINES     CLOUDY    80  59  48 SE17      30.10F

$$




USA.gov is the U.S. government's official web portal to all federal, state and local government web resources and services.